Starlink 1364

operational
NORAD ID: 45589 Int'l Des: 2020-025 Owner: SPXS Country: US Constellation: starlink
LEOCIRCULAR

Über Starlink 1364

Beschreibung wird geladen...

Live-Position

3D-Globus wird geladen...

Nächste Überflüge

Höhenverlauf

Altitude vs Time

uPlot chart will show altitude changes over time

Zweizeiliger Elementsatz

1 45589U 20025BL 26063.33276891 .00110438 00000-0 20291-2 0 9999
2 45589 53.0516 88.8685 0007402 33.9976 326.1504 15.48376143324862
Epoch: 4. März 2026 • Age: 22 hours

Aktueller Status

Höhe 419.8 km
Geschwindigkeit 7.66 km/s
Subsatellitenpunkt -7.89°S, 50.81°W
Startdatum 22. Apr. 2020
Alter 5.8 years
Typ internet

Technische Details

Klassifizierung Payload
Masse 260.00 kg
Trockenmasse 248.00 kg
Gesamtmasse 260.00 kg
Länge 0.20 m
Durchmesser 2.80 m
Spannweite 9.00 m
Form Box + pan
Hersteller SPXS
Bus-Typ Starlink
Phasenstatus In Orbit
Besitzer/Staat SPXS/US

Große Konstellationen

Loading constellations...